Regional Weather Roundup
Issued by NWS

Home | Current Version | Previous Version | Graphics & Text | Print | Product List | Glossary Off
Versions: 1 2 3 4 5 6 7 8 9 10 11 12 13 14 15 16 17 18 19 20 21 22 23 24 25 26 27 28 29 30 31 32 33 34 35 36 37 38 39 40 41 42 43 44 45 46 47 48 49 50

449
ASUS43 KMKX 272300
RWRWI

WISCONSIN REGIONAL WEATHER ROUNDUP
NATIONAL WEATHER SERVICE MILWAUKEE/SULLIVAN WI
500 PM CST MON FEB 27 2017

NOTE: "FAIR" INDICATES FEW OR NO CLOUDS BELOW 12,000 FEET WITH NO
SIGNIFICANT WEATHER AND/OR OBSTRUCTIONS TO VISIBILITY.

WIZ001-002-006>008-014>016-023>028-280000-
NORTHWEST WISCONSIN

CITY           SKY/WX    TMP DP  RH WIND       PRES   REMARKS
SUPERIOR ARPT  PTCLDY    29  25  84 NE8       29.92F WCI  21
ASHLAND        MOCLDY    32  24  72 NE7       29.93R WCI  26
HAYWARD        PTCLDY    40  15  36 S14       29.90S WCI  32
SIREN          CLEAR     42  16  34 S12G17    29.89S
CUMBERLAND     CLOUDY    37  19  48 S9        29.91F WCI  31
RICE LAKE      CLOUDY    39  20  46 S8        29.94S WCI  34
CHETEK         CLOUDY    39  20  47 SE7G16    29.93F WCI  34
LADYSMITH      CLOUDY    39  20  46 S7        29.95F WCI  34
EAU CLAIRE     NOT AVBL
MENOMONIE      MOCLDY    40  23  52 E5        29.94S
NEW RICHMOND   CLOUDY    41  19  41 S8        29.91F
OSCEOLA        MOCLDY    42  20  41 S10       29.93S
$$

WIZ003>005-009-010-017-018-280000-
NORTH CENTRAL WISCONSIN

CITY           SKY/WX    TMP DP  RH WIND       PRES   REMARKS
MANITOWISH WTR CLEAR     38  17  43 SW10      29.92S WCI  31
ARBOR VITAE    CLEAR     39  19  43 S12         N/A  WCI  32
WOODRUFF       CLEAR     39  19  43 S12         N/A  WCI  32
RHINELANDER    CLEAR     39  17  41 S10       29.96S WCI  32
EAGLE RIVER    CLEAR     38  12  34 SW9       29.94S WCI  32
LAND O LAKES   CLEAR     39  16  38 S6        29.95S WCI  35
PHILLIPS       CLEAR     38  17  42 S9        29.93F WCI  31
TOMAHAWK       CLEAR     37  18  46 S3        29.97S
MEDFORD        PTCLDY    36  19  50 S5        29.95F WCI  32
MERRILL        NOT AVBL
$$

WIZ029-030-035-036-043>047-280000-
CENTRAL WISCONSIN

CITY           SKY/WX    TMP DP  RH WIND       PRES   REMARKS
WAUSAU         CLEAR     39  19  44 S7        29.97F WCI  34
MOSINEE        NOT AVBL
MARSHFIELD     CLEAR     40  18  41 S10       29.96F WCI  33
STEVENS POINT  CLEAR     40  21  46 S9        30.00F WCI  34
WAUPACA        CLEAR     42  28  57 SE6       30.03S
WAUTOMA        PTCLDY    43  30  60 S6        30.02F
WISC RAPIDS    CLEAR     42  26  53 SW8       30.00S
CAMP DOUGLAS   NOT AVBL
$$

WIZ011>013-019>022-031-037>040-048>050-280000-
NORTHEAST WISCONSIN

CITY           SKY/WX    TMP DP  RH WIND       PRES   REMARKS
ANTIGO         CLEAR     37  19  49 S10       29.98F WCI  29
SHAWANO        CLEAR     42  24  48 S6        30.04S
OCONTO         CLEAR     37  27  65 S6        30.06S WCI  33
STURGEON BAY   CLOUDY    35  29  78 S10       30.07S WCI  27
GREEN BAY      CLOUDY    37  32  82 SE7       30.06R WCI  32
MANITOWOC      NOT AVBL
APPLETON       MOCLDY    37  27  65 SE6       30.03R WCI  33
CLINTONVILLE   CLEAR     39  27  60 S8        30.03S WCI  34
OSHKOSH        PTCLDY    38  30  73 SE6       30.03S WCI  33
$$

WIZ032>034-041-042-053>061-280000-
SOUTHWEST WISCONSIN

CITY           SKY/WX    TMP DP  RH WIND       PRES   REMARKS
LA CROSSE      CLEAR     47  31  53 S9        29.97S
SPARTA         CLEAR     45  30  54 S8        29.99S
VIROQUA        CLEAR     44  32  63 S6        29.98R
BOSCOBEL       PTCLDY    50  33  52 S6        29.99F
PRAIRIE DU CHI PTCLDY    49  31  50 SE6       29.98F
PLATTEVILLE    CLOUDY    49  33  55 S12       30.00S
$$

WIZ056-057-062-063-064-067-068-280000-
SOUTH CENTRAL WISCONSIN

CITY           SKY/WX    TMP DP  RH WIND       PRES   REMARKS
REEDSBURG      MOCLDY    44  33  65 S7        30.00R
BARABOO/DELLS  MOCLDY    44  31  60 SW7       30.00S
LONE ROCK      NOT AVBL
MINERAL POINT  PTCLDY    48  32  53 S8        30.00R
MADISON        MOCLDY    47  29  49 S9        30.01S
MIDDLETON      PTCLDY    49  32  51 S10       30.01S
WATERTOWN      CLEAR     47  32  55 S10       30.02F
MONROE         CLOUDY    46  32  57 S12       30.01R
JANESVILLE     PTCLDY    52  28  40 S7        30.02F
$$

WIZ051-052-058>065-066-070>072-280000-
SOUTHEAST WISCONSIN

CITY           SKY/WX    TMP DP  RH WIND       PRES   REMARKS
MILWAUKEE      MOCLDY    46  33  60 S10       30.06F
WAUKESHA       PTCLDY    45  30  57 S14       30.05F
MILWAUKEE/TIMM PTCLDY    45  30  57 SE9       30.06F
RACINE         CLEAR     42  33  70 S15       30.09F
KENOSHA        CLEAR     44  33  65 SE13      30.07F
FOND DU LAC    CLEAR     42  29  59 CALM      30.03S
SHEBOYGAN      CLEAR     38  31  76 S7        30.06F WCI  33
WEST BEND      CLOUDY    43  32  65 SE7       30.04F
JUNEAU         CLEAR     46  32  57 S10       30.04S
$$

LSZ147-162-280000-
LAKE SUPERIOR

STATION/POSITION TIME  TEMP    WIND        PRES    WAVE
                       AIR SEA DIR/SP/G            HT/PER
                 (UTC) (F)     (DEG/KT/KT) (MB)    (FT/S)
DEVILS ISLAND    2200   28      40/  9/ 10 1015.0F
PORT WING        2240   29      40/ 13/ 15 1013.2F
SAXON HARBOR     2240   31      50/ 10/ 12 1013.2F
$$

LMZ867-665-643>646-280000-
LAKE MICHIGAN

STATION/POSITION TIME  TEMP    WIND        PRES    WAVE
                       AIR SEA DIR/SP/G            HT/PER
                 (UTC) (F)     (DEG/KT/KT) (MB)    (FT/S)
CHAMBERS ISLAND  2240   37     150/  3/ 11 1017.6F
NORTHPORT PIER   2240   37     170/  7/ 15 1018.3S
SISTER BAY       2220          190/ 18/ 21   N/A
KEWAUNEE LAKESHO 2230   36     180/ 10/ 12 1018.0F
SHEBOYGAN LAKESH 2200   36     170/ 10/ 11 1018.8F
PORT WASHINGTON  2240   39     190/  8/ 12 1019.0F
MILWAUKEE LAKESH 2230   38     150/ 14/ 15   N/A
KENOSHA   LAKESH 2200   39     170/ 11/ 13 1019.0
$$

TC  - TEMPERATURE IN CELSIUS
VSB - VISIBILITY IN STATUTE MILES
WCI - WIND CHILL INDEX
HX  - HEAT INDEX





USA.gov is the U.S. government's official web portal to all federal, state and local government web resources and services.